This is the latest recevied weather packets stored in our database for station/object K1BWE-1. If no packets are shown the sender has not sent any weather packets the latest 10 day(s).
| Time | Temp. | Humidity | Pressure | Rain* | Wind** | Luminosity | Snow |
|---|---|---|---|---|---|---|---|
| 1777434999 | 19.44° C | 20% | 1017.4 hPa | 0 mm | - | 0 W/m² | - |
| 1777434696 | 19.44° C | 20% | 1017.4 hPa | 0 mm | - | 0 W/m² | - |
| 1777434390 | 20° C | 19% | 1017.5 hPa | 0 mm | - | 0 W/m² | - |
| 1777434089 | 20.56° C | 18% | 1017.4 hPa | 0 mm | - | 0 W/m² | - |
| 1777433786 | 20.56° C | 18% | 1017.2 hPa | 0 mm | - | 0 W/m² | - |
| 1777433481 | 20.56° C | 18% | 1017.2 hPa | 0 mm | - | 0 W/m² | - |
| 1777433176 | 20.56° C | 18% | 1017.1 hPa | 0 mm | - | 0 W/m² | - |
| 1777432874 | 20.56° C | 17% | 1017 hPa | 0 mm | - | 0 W/m² | - |
| 1777432573 | 21.11° C | 18% | 1017 hPa | 0 mm | - | 0 W/m² | - |
| 1777432270 | 21.11° C | 18% | 1017.1 hPa | 0 mm | - | 0 W/m² | - |
| 1777431969 | 21.67° C | 17% | 1017.1 hPa | 0 mm | - | 0 W/m² | - |
| 1777431666 | 21.11° C | 18% | 1016.8 hPa | 0 mm | - | 0 W/m² | - |
| 1777431361 | 21.11° C | 18% | 1016.7 hPa | 0 mm | - | 0 W/m² | - |
| 1777431057 | 21.11° C | 19% | 1016.4 hPa | 0 mm | - | 0 W/m² | - |
| 1777430754 | 21.11° C | 19% | 1016.5 hPa | 0 mm | - | 0 W/m² | - |
| 1777430450 | 21.67° C | 18% | 1016.6 hPa | 0 mm | - | 0 W/m² | - |
| 1777430145 | 21.67° C | 18% | 1016.4 hPa | 0 mm | - | 0 W/m² | - |
| 1777429841 | 22.22° C | 18% | 1016.1 hPa | 0 mm | - | 0 W/m² | - |
| 1777429538 | 22.78° C | 17% | 1016.1 hPa | 0 mm | - | 0 W/m² | - |
| 1777429233 | 22.78° C | 17% | 1015.9 hPa | 0 mm | - | 0 W/m² | - |
| 1777428929 | 22.78° C | 16% | 1016.1 hPa | 0 mm | - | 0 W/m² | - |
| 1777428626 | 23.33° C | 16% | 1016.1 hPa | 0 mm | - | 1 W/m² | - |
| 1777428321 | 23.33° C | 16% | 1016 hPa | 0 mm | - | 0 W/m² | - |
| 1777428017 | 23.33° C | 15% | 1015.9 hPa | 0 mm | - | 0 W/m² | - |
| 1777427714 | 23.89° C | 15% | 1015.8 hPa | 0 mm | - | 2 W/m² | - |
* Rain latest hour (hover to see other rain measurements)
** Current wind speed in m/s (hover to see current wind gust speed)